Regional Weather Roundup
Issued by NWS Spokane, WA

Home | Current Version | Previous Version | Text Only | Print | Product List | Glossary On
Versions: 1 2 3 4 5 6 7 8 9 10 11 12 13 14 15 16 17 18 19 20 21 22 23 24 25 26 27 28 29 30 31 32 33 34 35 36 37 38 39 40 41 42 43 44 45 46 47 48 49 50
000
NZUS01 KOTX 022110
RWROTX
EASTERN WASHINGTON/NORTHERN IDAHO ROUNDUP
NATIONAL WEATHER SERVICE, SPOKANE WA
100 PM PST MON MAR 02 2015

Note: "fair" indicated few or no clouds below 12,000 feet with no
significant weather and/or obstructions to visibility.

...NORTHEAST WASHINGTON AND NORTHERN IDAHO PANHANDLE...

CITY           SKY/WX    TMP DP  RH WIND       PRES   REMARKS
SPOKANE INTL   PTSUNNY   38  25  59 VRB7      29.88F
SPOKANE DOWNTO PTSUNNY   40  23  50 CALM      29.90F
COEUR D ALENE  PTSUNNY   37  23  56 NE5       29.87F
DEER PARK      CLOUDY    39  22  50 CALM      29.89S
SANDPOINT      PTSUNNY   37  25  60 SE7       29.89F
BONNERS FERRY  LGT SNOW  32  27  80 CALM      29.90F

...SOUTHEAST WASHINGTON AND SOUTHERN IDAHO PANHANDLE...

CITY           SKY/WX    TMP DP  RH WIND       PRES   REMARKS
WALLA WALLA    CLOUDY    42  25  50 VRB3      29.93F
PULLMAN/MOSCOW CLOUDY    40  21  46 W12       29.87S
LEWISTON       CLOUDY    42  27  55 W3        29.88F
LOWELL           N/A     45  16  31 CALM      29.85F

...COLUMBIA BASIN...

CITY           SKY/WX    TMP DP  RH WIND       PRES   REMARKS
EPHRATA        CLOUDY    49  22  34 N15       29.92F
MOSES LAKE     CLOUDY    49  20  31 N16       29.93F
TRI CITIES     CLOUDY    50  29  44 NW15      29.97S
HERMISTON      MOSUNNY   50  22  33 E6        29.95F
PENDLETON      CLOUDY    44  21  40 N7        29.92F

...EAST SLOPES CASCADES...

CITY           SKY/WX    TMP DP  RH WIND       PRES   REMARKS
THE DALLES     PTSUNNY   55  29  36 CALM      29.96F
YAKIMA         CLOUDY    49  26  41 CALM      29.97S
ELLENSBURG     CLOUDY    47  28  47 SW7       29.94F
WENATCHEE      CLOUDY    48  28  46 NW5       29.94F
OMAK           SUNNY     49  20  31 N24G31    29.95F

...SOUTHERN BRITISH COLUMBIA...

CITY           SKY/WX    TMP DP  RH WIND       PRES   REMARKS
PENTICTON      PTSUNNY   48  21  34 N20G28    30.02F
CASTLEGAR      PTSUNNY   45  23  42 N9        29.89
CRANBROOK      LGT SNOW  28  23  80 N7        29.94R WCI  21

...WESTERN MONTANA...

CITY           SKY/WX    TMP DP  RH WIND       PRES   REMARKS
MISSOULA       CLOUDY    35  13  40 NW7       29.83F WCI  29

...NEIGHBORING CITIES...

CITY           SKY/WX    TMP DP  RH WIND       PRES   REMARKS
SEATTLE        PTSUNNY   48  36  63 N8        30.03F
CALGARY        PTSUNNY   21   9  58 N30G36    30.05R WCI   3



USA.gov is the U.S. government's official web portal to all federal, state and local government web resources and services.